Regional Weather Roundup
Issued by NWS Cleveland, OH

Home | Current Version | Previous Version | Text Only | Print | Product List | Glossary Off
Versions: 1 2 3 4 5 6 7 8 9 10 11 12 13 14 15 16 17 18 19 20 21 22 23 24 25 26 27 28 29 30 31 32 33 34 35 36 37 38 39 40 41 42 43 44 45 46 47 48 49 50

000
ASUS41 KCLE 240410
RWRCLE
OHIO REGIONAL WEATHER ROUNDUP
NATIONAL WEATHER SERVICE CLEVELAND, OH
1200 AM EDT WED SEP 24 2014

NOTE: "FAIR" INDICATES FEW OR NO CLOUDS BELOW 12,000 FEET WITH NO
SIGNIFICANT WEATHER AND/OR OBSTRUCTIONS TO VISIBILITY.

OHZ001>008-015>018-024>027-034-035-043-044-240500-
   NORTHWEST OHIO

CITY           SKY/WX    TMP DP  RH WIND       PRES   REMARKS
DEFIANCE       CLEAR    N/A N/A N/A E6        30.36R
FINDLAY        CLEAR     56  50  80 E9        30.34S
TOLEDO EXPRESS CLEAR     51  49  92 CALM      30.36R
TOLEDO EXEC    CLEAR     54  49  83 SE7         N/A
LIMA           CLEAR     50  45  83 E5        30.35R
$$

OHZ009>014-019>023-028>033-038-089-240500-
   NORTHEAST OHIO

CITY           SKY/WX    TMP DP  RH WIND       PRES   REMARKS
CLE-HOPKINS    CLEAR     53  48  83 CALM      30.39S
CLE-LAKEFRONT  CLEAR     58  51  78 CALM      30.37S
CUY CO. ARPT   NOT AVBL
LORAIN-ELYRIA  CLEAR     55  49  80 SE5       30.38R
ASHTABULA      CLEAR     49  48  97 SE3       30.40S FOG
AKRON-CANTON   CLEAR     54  49  83 NE8       30.38R
WOOSTER        CLEAR     51  47  86 E5        30.39R
MANSFIELD      CLEAR     53  47  79 E6        30.37S
YOUNGSTOWN     CLEAR     50  49  96 E5        30.39R
$$

OHZ042-051>053-060>062-070>072-077>081-240500-
  SOUTHWEST OHIO

CITY           SKY/WX    TMP DP  RH WIND       PRES   REMARKS
CINC-COVINGTON CLEAR     60  42  51 E7        30.31R
CINC-LUNKEN    CLEAR     49  46  90 CALM      30.32R
HAMILTON       CLEAR     48  46  93 W3        30.33R
DAYTON         CLEAR     57  44  62 E6        30.34S
WRIGHT-PAT AFB CLEAR     55  49  79 N2        30.33S
DAYTON GENERAL CLEAR     55  44  66 E7        30.32S
WILMINGTON     CLEAR     54  42  64 E7        30.33S
$$

OHZ036-037-039>041-045>050-054>059-063>069-073>076-082>088-240500-
  CENTRAL AND SOUTHEAST OHIO

CITY           SKY/WX    TMP DP  RH WIND       PRES   REMARKS
COLUMBUS       CLEAR     58  44  60 E3        30.34S
OSU AIRPORT    CLEAR     53  44  71 NE3       30.35R
BOLTON FIELD   CLEAR     55  45  69 NE5       30.35S
RICKENBACK AFB CLEAR     50  44  79 NE6       30.33S
NEWARK         CLEAR     46  43  89 CALM      30.36R
MARION         CLEAR     50  44  80 NE5       30.36R
LANCASTER      CLEAR     48  44  86 CALM      30.35R
ZANESVILLE     CLEAR     48  44  86 CALM      30.35S
NEW PHILLY     CLEAR     48  46  93 CALM      30.39R
$$


USA.gov is the U.S. government's official web portal to all federal, state and local government web resources and services.